Weather History for KMSL - January, 2013

Change the Weather History Date:

Tuesday, January 29, 2013

  Actual Average Record
Temperature  
Mean Temperature 63 °F 42 °F  
Max Temperature 74 °F 52 °F 76 °F (1903)
Min Temperature 51 °F 32 °F -3 °F (1966)
Degree Days  
Heating Degree Days 2 23  
Month to date heating degree days 543 693  
Since 1 July heating degree days 1641 1929  
Cooling Degree Days 0 0  
Month to date cooling degree days 7 0  
Year to date cooling degree days 7 0  
Growing Degree Days 12 (Base 50)    
Moisture  
Dew Point 58 °F    
Average Humidity 79    
Maximum Humidity 93    
Minimum Humidity 64    
Precipitation  
Precipitation 0.00 in 0.16 in 1.98 in (1912)
Month to date precipitation 7.22 4.29  
Year to date precipitation 7.22 4.29  
Snow  
Snow 0.00 in - - ()
Month to date snowfall T  
Since 1 July snowfall T  
Snow Depth 0.00 in    
Sea Level Pressure  
Sea Level Pressure 29.96 in    
Wind  
Wind Speed 11 mph (SSE)    
Max Wind Speed 23 mph    
Max Gust Speed 32 mph    
Visibility 8 miles    
Events      
T = Trace of Precipitation, MM = Missing Value Source: NWS Daily Summary

Daily Weather History Graph

Daily Weather History Graph

Search for Another Location

Airport or City:

Trip Planner

Search our weather history database for the weather conditions in past years. The results will help you decide how hot, cold, wet, or windy it might be!

Date:

Astronomy

Jan. 29, 2013 Rise Set
Actual Time 6:50 AM CST 5:16 PM CST
Civil Twilight 6:24 AM CST 5:43 PM CST
Nautical Twilight 5:53 AM CST 6:13 PM CST
Astronomical Twilight 5:23 AM CST 6:43 PM CST
Moon 8:03 PM CST (1/29) 7:55 AM CST (1/29)
Length of Visible Light 11h 19m
Length of Day
10h 26m
Waning Gibbous, 93% of the Moon is Illuminated
Jan 29
Waning Gibbous
Feb 3
Last Quarter
Feb 10
New
Feb 17
First Quarter
Feb 25
Full

Hourly Weather History & Observations

Time (CST) Temp. Dew Point Humidity Pressure Visibility Wind Dir Wind Speed Gust Speed Precip Events Conditions
12:53 AM 52.0 °F 48.0 °F 86% 30.16 in 7.0 mi ESE 4.6 mph - N/A   Clear
1:42 AM 53.6 °F 48.2 °F 82% 30.16 in 6.0 mi ESE 5.8 mph - N/A   Mostly Cloudy
1:53 AM 54.0 °F 51.1 °F 90% 30.14 in 6.0 mi ESE 6.9 mph - N/A   Overcast
2:53 AM 55.9 °F 52.0 °F 87% 30.12 in 8.0 mi ESE 6.9 mph - N/A   Overcast
3:30 AM 55.4 °F 51.8 °F 88% 30.12 in 7.0 mi SE 6.9 mph - N/A   Overcast
3:53 AM 55.9 °F 52.0 °F 87% 30.10 in 6.0 mi SE 9.2 mph - N/A   Overcast
4:39 AM 55.4 °F 53.6 °F 94% 30.09 in 5.0 mi SSE 8.1 mph - N/A   Overcast
4:53 AM 57.0 °F 53.1 °F 87% 30.07 in 5.0 mi SSE 9.2 mph - N/A   Overcast
5:53 AM 59.0 °F 55.9 °F 90% 30.08 in 6.0 mi South 6.9 mph - N/A   Overcast
6:53 AM 60.1 °F 55.9 °F 86% 30.11 in 6.0 mi SSW 9.2 mph - N/A   Overcast
7:53 AM 59.0 °F 55.9 °F 90% 30.10 in 3.0 mi SSE 3.5 mph - N/A   Overcast
8:53 AM 62.1 °F 57.9 °F 86% 30.08 in 7.0 mi SSE 5.8 mph - N/A   Overcast
9:53 AM 64.9 °F 59.0 °F 81% 30.07 in 10.0 mi South 8.1 mph - N/A   Overcast
10:21 AM 66.2 °F 60.8 °F 83% 30.06 in 10.0 mi South 6.9 mph - N/A   Overcast
10:53 AM 66.9 °F 60.1 °F 79% 30.04 in 10.0 mi South 12.7 mph - N/A   Overcast
11:05 AM 66.2 °F 60.8 °F 83% 30.04 in 10.0 mi South 10.4 mph - N/A   Overcast
11:53 AM 69.1 °F 61.0 °F 75% 29.99 in 10.0 mi South 13.8 mph - N/A   Overcast
12:53 PM 69.1 °F 61.0 °F 75% 29.94 in 10.0 mi South 10.4 mph - N/A   Overcast
1:53 PM 71.1 °F 62.1 °F 73% 29.90 in 10.0 mi South 11.5 mph - N/A   Overcast
2:53 PM 73.0 °F 61.0 °F 66% 29.87 in 10.0 mi South 15.0 mph 23.0 mph N/A   Overcast
3:53 PM 72.0 °F 61.0 °F 68% 29.86 in 10.0 mi South 15.0 mph 25.3 mph N/A   Overcast
4:53 PM 72.0 °F 61.0 °F 68% 29.86 in 10.0 mi South 12.7 mph 19.6 mph N/A   Overcast
5:53 PM 70.0 °F 61.0 °F 73% 29.82 in 10.0 mi SSE 17.3 mph - N/A   Clear
6:53 PM 70.0 °F 62.1 °F 76% 29.83 in 10.0 mi South 9.2 mph - N/A   Clear
7:53 PM 69.1 °F 62.1 °F 78% 29.80 in 10.0 mi SSE 13.8 mph 21.9 mph N/A   Scattered Clouds
8:39 PM 69.8 °F 62.6 °F 78% 29.80 in 10.0 mi South 9.2 mph - N/A   Mostly Cloudy
8:53 PM 70.0 °F 63.0 °F 78% 29.78 in 10.0 mi South 11.5 mph - N/A   Overcast
9:53 PM 71.1 °F 63.0 °F 75% 29.74 in 10.0 mi South 17.3 mph 26.5 mph N/A   Mostly Cloudy
10:15 PM 71.6 °F 62.6 °F 73% 29.75 in 10.0 mi South 18.4 mph 27.6 mph N/A   Mostly Cloudy
10:31 PM 71.6 °F 62.6 °F 73% 29.74 in 10.0 mi South 18.4 mph 31.1 mph N/A   Overcast
10:53 PM 71.1 °F 62.1 °F 73% 29.70 in 10.0 mi South 15.0 mph 29.9 mph N/A   Overcast
11:53 PM 72.0 °F 62.1 °F 71% 29.66 in 10.0 mi South 20.7 mph 32.2 mph N/A   Overcast